Location: Klein M�hlingen
(51.9472°N, 11.7453°E)
Time: 03:11:50
(UTC+00:00)

Nauka - Pass Details

Date: 06 October 2021
Orbit: 417 x 423 km, 51.6° (Epoch: 26 October)

Event Time Altitude Azimuth Distance (km) Brightness Sun altitude
Rises 17:34:34 0° 279° (W) 2,366 ? -9.4°
Reaches altitude 10° 17:37:25 10° 253° (WSW) 1,499 ? -9.9°
Maximum altitude 17:39:14 14° 220° (SW) 1,276 ? -10.1°
Drops below altitude 10° 17:41:04 10° 187° (S) 1,495 ? -10.4°
Sets 17:43:54 0° 161° (SSE) 2,355 ? -10.9°
